{"data":{"norad_id":55163,"intl_designator":"2023-004Z","name":"ONEWEB-0622","alt_names":[],"object_type":"PAYLOAD","status":"ACTIVE","operator":null,"country":"UK","launch_date":"2023-01-10","launch_site_code":"AFETR","launch_vehicle":null,"mission":null,"orbit_class":"UNKNOWN","rcs_meters":null,"size_class":null,"mass_kg":null,"dimensions":null,"purposes":["comms"],"wikipedia_slug":null,"has_3d_model":false,"image_url":null,"decayed_at":null,"tle_current":{"epoch":"2026-09-19T05:51:51.928992Z","epoch_age_seconds":130759,"freshness":"FRESH","line1":"1 55163U 23004Z   26262.24435103 -.00000266  00000+0 -78638-3 0  9999","line2":"2 55163  87.8964   2.3743 0001861 129.9883 230.1408 13.11418992178125","mean_motion":13.11418992,"eccentricity":0.0001861,"inclination_deg":87.8964,"raan_deg":2.3743,"arg_perigee_deg":129.9883,"mean_anomaly_deg":230.1408,"bstar":-0.00078638,"rev_number":17812,"period_min":109.80472364548,"perigee_km":1216.2612135633,"apogee_km":1219.0883747131,"semimajor_km":7595.8117941382,"source":"CELESTRAK","updated_at":"2026-09-20T09:00:44.755071Z"}}}